CAPE
0 0 0 0 0 0 0 0 0 0 0 0 0 0 0 0 10 60 33 0 2 182 157 8 0 0 43 82 173 78 94 136 126 46 29 4 2 0 0 0 2 0 7 6 5 8 4 1 0
0 0 0 0 0 0 0 1 9 0 0 0 0 0 0 0 401 323 12 0 1 192 231 111 0 0 24 77 210 99 104 169 163 109 21 5 5 0 0 0 3 4 6 9 8 3 0 0 0
0 0 0 0 0 0 0 0 0 0 0 0 0 0 0 374 511 319 53 0 24 220 251 166 0 0 33 154 190 73 112 114 211 90 17 8 2 0 1 0 0 2 6 11 6 0 0 0 0
0 0 0 0 0 0 0 0 0 0 0 0 0 0 161 551 691 573 70 0 112 316 283 79 12 0 40 162 134 118 107 75 79 24 8 3 2 2 6 3 1 3 3 4 0 0 0 0 0
0 0 0 0 0 0 0 0 0 0 0 0 0 0 53 628 632 422 0 0 154 340 233 101 6 203 133 154 93 61 63 48 26 9 0 2 5 8 9 14 10 5 5 1 0 0 0 0 0
0 0 0 0 0 0 0 0 0 0 0 0 1 0 14 679 594 373 0 0 214 322 227 139 58 308 81 137 107 113 60 30 16 0 0 1 9 8 13 11 14 10 1 0 0 0 0 0 0
0 0 0 0 0 0 0 0 0 0 0 0 0 0 7 446 757 296 0 0 314 396 287 157 137 329 174 149 114 93 22 14 0 0 0 7 10 8 9 8 10 2 0 0 0 0 0 0 0
0 0 0 0 0 0 0 0 0 0 0 0 0 0 6 818 848 453 0 0 526 490 355 162 189 287 212 159 97 30 18 0 0 0 0 6 9 4 5 8 2 0 0 0 0 0 0 0 0
0 0 0 0 0 0 0 0 0 0 0 0 0 0 357 862 772 677 17 0 458 467 377 148 101 188 173 183 74 18 13 2 0 0 0 0 0 0 2 1 0 1 0 0 0 0 0 0 0
0 0 0 0 0 0 0 0 0 0 0 0 0 0 353 681 527 688 291 0 370 423 358 211 103 117 220 203 44 5 0 1 0 0 0 0 0 0 0 0 0 0 0 0 0 0 0 0 0
0 0 0 0 0 0 0 0 0 0 0 0 0 0 19 194 272 369 758 187 84 374 417 330 102 92 73 10 11 7 0 3 0 0 0 0 2 2 0 0 0 0 0 0 0 0 0 0 0
0 0 0 0 0 0 0 0 0 0 0 0 0 0 0 2 128 334 418 707 165 292 228 378 136 82 49 26 14 2 0 0 0 0 0 0 6 3 0 0 0 0 0 0 0 0 0 0 0
0 0 0 0 0 0 0 0 0 0 0 0 0 0 0 0 1 351 472 533 500 118 178 90 154 49 20 77 58 25 6 2 0 0 0 0 0 0 0 0 0 0 0 0 0 0 0 0 0
0 0 0 0 0 0 0 0 0 0 0 0 0 0 0 0 0 1 527 416 637 280 88 85 96 25 17 40 49 38 6 4 0 0 0 0 0 0 0 0 0 0 0 0 0 0 0 0 2
0 0 0 0 0 0 0 0 0 0 0 0 0 0 0 0 0 0 21 563 547 478 89 3 13 17 14 8 27 25 27 4 1 0 0 0 0 0 0 0 0 0 0 1 2 1 0 0 0
0 0 0 0 0 0 0 0 0 0 0 0 1 5 38 121 142 116 258 532 527 405 79 10 0 2 7 3 18 41 29 7 2 0 0 0 0 0 0 0 0 0 4 3 1 0 2 2 1
0 0 0 0 0 2 0 0 0 0 2 0 0 10 1 7 24 17 107 587 502 307 133 38 4 2 31 21 21 24 18 27 15 6 0 0 0 0 0 0 0 3 10 7 5 5 4 4 3
0 2 0 1 1 0 0 0 0 3 0 0 0 0 0 5 0 0 21 431 414 352 239 43 2 20 48 60 24 19 26 26 24 7 5 9 0 0 0 0 1 8 16 18 8 9 6 8 13
0 0 0 0 0 0 1 1 2 2 0 0 0 0 0 4 0 1 2 0 63 376 213 61 9 10 16 21 18 24 18 13 29 30 23 10 2 0 0 0 2 4 11 9 5 17 22 28 20
0 0 0 0 0 0 3 0 0 1 2 4 4 0 2 1 1 1 2 0 4 3 0 7 1 16 9 31 39 23 3 10 37 35 43 42 33 6 6 3 1 9 31 28 25 26 15 6 18
0 0 0 0 0 1 0 0 0 0 2 2 5 1 3 2 1 3 1 0 2 5 4 3 2 107 80 77 46 42 35 42 43 40 41 43 59 46 53 49 41 48 59 40 26 18 20 18 22
0 0 0 0 0 0 1 0 0 0 0 3 2 4 3 0 4 4 1 0 3 4 2 1 4 4 3 13 71 39 24 49 32 49 38 63 69 59 70 72 62 53 43 46 30 34 19 30 31
0 0 0 2 1 3 0 0 1 0 0 0 3 5 7 2 3 3 6 0 1 1 1 0 0 1 2 3 2 4 31 54 52 34 24 31 15 0 13 30 35 19 9 6 2 0 0 0 3
0 0 0 0 1 0 0 0 0 2 1 1 2 4 7 9 13 10 5 1 0 1 1 0 0 0 0 1 1 2 3 2 2 1 2 1 2 2 1 1 1 1 0 2 2 0 0 0 0
0 0 0 0 0 0 0 0 0 0 0 2 3 4 3 10 13 18 7 2 0 0 0 0 0 0 1 1 0 0 0 0 0 0 1 0 1 0 0 0 0 0 0 0 7 0 0 0 0
0 0 0 0 0 0 0 0 0 0 0 0 0 0 0 0 1 0 0 0 0 0 1 0 0 0 0 1 1 1 0 0 0 0 0 0 0 0 0 0 0 0 0 0 0 0 0 0 6
0 0 0 0 0 0 0 0 0 0 0 0 0 0 0 0 0 0 0 0 0 0 0 0 0 0 0 1 2 2 0 1 1 0 0 0 0 0 0 0 0 0 0 0 0 0 1 2 7
0 0 0 0 0 0 0 0 0 0 0 0 0 0 0 0 0 0 0 0 0 0 0 0 0 0 0 0 0 0 0 0 0 1 0 0 0 0 0 0 0 0 0 0 0 0 0 0 0
0 0 0 0 0 0 0 0 0 0 0 0 0 0 0 0 0 0 0 0 0 0 0 0 0 0 0 0 0 0 0 0 0 0 0 0 0 0 0 0 0 0 0 0 0 0 0 0 0
0 0 0 0 0 0 0 0 0 0 0 0 0 0 0 0 0 0 0 0 0 0 0 0 0 0 0 0 0 0 0 0 0 0 0 0 0 0 0 0 0 0 0 0 0 0 0 0 0
CIN
0 0 0 0 0 0 0 0 0 0 0 0 0 0 0 0 -2 -23 -194 0 -50 -220 -162 -24 0 0 -50 -22 -3 -40 -55 -47 -89 -164 0 -1 0 0 0 0 -1 0 0 0 0 0 0 0 0
0 0 0 0 0 0 0 -5 -10 0 0 0 0 0 0 0 -36 -141 -39 0 -53 -228 -145 -114 0 0 -91 -22 -2 -16 -30 -23 -44 -98 -3 -1 0 0 0 0 -1 0 0 -1 0 0 0 0 0
0 0 0 0 0 0 0 0 0 0 0 0 0 0 0 -9 -52 -123 -237 0 -42 -219 -152 -117 0 0 -118 -12 -4 -17 -16 -31 -12 -85 -2 0 0 0 0 0 0 0 0 0 0 0 0 0 0
0 0 0 0 0 0 0 0 0 0 0 0 0 0 -12 -47 -41 -100 -230 0 -186 -179 -161 -167 -144 0 -116 -11 -12 -13 -11 -51 -61 -4 -6 0 0 0 0 0 0 0 0 0 0 0 0 0 0
0 0 0 0 0 0 0 0 0 0 0 0 0 0 -7 -81 -110 -169 0 0 -169 -158 -187 -195 -56 -37 -29 -16 -26 -54 -32 -51 -16 -15 0 0 0 0 0 0 0 0 0 0 0 0 0 0 0
0 0 0 0 0 0 0 0 0 0 0 0 -4 0 -24 -79 -112 -166 0 0 -140 -192 -174 -178 -211 -40 -57 -30 -32 -42 -55 -16 -11 0 0 -1 -1 -1 0 -1 0 0 0 0 0 0 0 0 0
0 0 0 0 0 0 0 0 0 0 0 0 0 0 -53 -44 -95 -190 0 0 -122 -193 -149 -154 -149 -55 -51 -22 -40 -53 -19 -26 0 0 0 -1 0 -1 -2 -1 -1 0 0 0 0 0 0 0 0
0 0 0 0 0 0 0 0 0 0 0 0 0 0 -5 -37 -63 -131 0 0 -133 -190 -139 -167 -96 -68 -72 -51 -66 -21 -33 0 0 0 0 -2 -1 -1 -1 -1 -1 0 0 0 0 0 0 0 0
0 0 0 0 0 0 0 0 0 0 0 0 0 0 -29 -58 -64 -72 -61 0 -114 -131 -150 -167 -163 -100 -80 -68 -63 -15 -31 -8 0 0 0 0 0 0 -4 -2 0 0 0 0 0 0 0 0 0
0 0 0 0 0 0 0 0 0 0 0 0 0 0 -33 -84 -94 -21 -72 -9 -72 -109 -130 -144 -124 -110 -60 -70 -118 -5 -2 -14 0 0 0 0 0 -2 0 0 0 0 0 0 0 0 0 0 0
0 0 0 0 0 0 0 0 0 0 0 0 0 -2 -16 -67 -69 -84 -8 -98 -139 -93 -64 -78 -107 -82 -89 -14 -63 -2 0 -44 0 0 0 0 -6 -7 0 0 0 0 0 0 0 0 0 0 0
0 0 0 0 0 0 0 0 0 0 0 0 0 0 0 -32 -76 -74 -65 -14 -79 -82 -61 -23 -79 -76 -80 -23 -16 -9 -2 -27 0 0 0 0 -7 -10 0 0 0 0 0 0 0 0 0 0 0
0 0 0 0 0 0 0 0 0 0 0 0 0 0 0 0 -30 -36 -64 -26 -13 -102 -89 -42 -34 -48 -8 -78 -66 -8 -12 -6 0 0 0 0 0 0 0 0 0 0 0 0 0 0 0 0 0
0 0 0 0 0 0 0 0 0 0 0 0 0 0 0 0 0 -3 -22 -44 -9 -31 -119 -120 -56 -48 -17 -81 -66 -13 -9 -7 0 0 0 0 0 0 0 0 0 0 0 -1 0 0 0 -1 -2
0 0 0 0 0 0 0 0 0 0 0 0 0 0 0 0 0 0 -28 -25 -26 -13 -33 -8 -109 -149 -23 -14 -9 -37 -9 -14 -5 0 0 0 0 0 0 0 0 0 0 -2 -2 -3 0 0 0
0 -1 0 0 0 0 -1 0 -1 0 0 0 -6 -39 -51 -55 -67 -86 -53 -10 -30 -17 -33 -57 0 -15 -24 -19 -7 -11 -6 -5 -3 0 0 0 0 0 0 0 0 0 -2 -1 -4 -1 -3 -1 -8
0 0 0 0 -3 -2 -1 0 0 0 -2 0 0 -71 -57 -88 -92 -166 -83 -27 -24 -26 -51 -121 -102 -40 -86 -79 -10 -10 -13 -5 -4 -5 0 0 0 0 0 0 0 -1 -5 -10 -8 -10 -5 -7 -6
0 0 0 0 -3 0 0 0 0 -4 0 0 0 0 0 -57 0 0 -121 -41 -19 -20 -24 -102 -134 -83 -44 -36 -8 -11 -10 -10 -8 -7 -5 -1 0 0 0 0 -2 -3 -7 -4 -8 -5 -7 -6 -14
0 0 0 -2 -3 0 -1 -1 0 0 0 -1 0 -1 -1 0 0 0 0 0 -153 -6 -10 -80 -115 -141 -79 -25 -8 -11 -8 -14 -12 -6 -4 -2 -4 0 0 0 -3 -4 -6 -8 -6 -2 -6 -12 -16
0 0 0 0 0 -1 -1 0 0 0 0 0 0 0 0 0 0 0 0 0 0 0 0 -41 -47 -57 -60 -24 -22 -28 -18 -12 -44 -11 -11 -7 -3 -3 -6 -1 -2 -4 -4 -3 -8 -13 -21 -22 -24
0 0 0 0 0 0 -1 0 0 0 0 0 0 0 0 0 0 0 0 0 0 0 0 0 0 -5 -11 -7 -13 -26 -15 -9 -12 -5 -5 -8 -5 -5 -5 -4 -3 -4 -3 -5 -16 -20 -31 -22 -24
0 0 0 0 0 0 0 0 0 0 0 0 0 0 0 0 0 0 0 0 0 0 0 0 0 0 0 -22 -3 -6 -5 -3 -36 -21 -16 -10 -6 -6 -6 -4 -6 -5 -5 -5 -6 -3 -3 -9 -6
0 0 0 -1 -4 0 0 0 0 0 0 0 0 0 0 0 -1 0 -1 0 0 0 0 0 0 0 0 0 0 -52 -2 -3 -7 -15 -17 -24 -50 0 -78 -37 -21 -16 -7 -7 0 0 0 0 0
0 0 0 0 0 0 0 0 0 0 0 0 0 0 0 0 0 0 -1 0 0 0 0 0 0 0 0 0 0 0 0 0 0 -31 -31 0 0 0 0 0 0 0 0 -2 -1 0 0 0 0
0 0 0 -1 -1 0 0 0 0 0 0 0 0 0 0 -1 -2 -1 -1 0 0 0 0 0 0 0 0 0 0 0 0 0 0 0 0 0 0 0 0 0 0 0 0 0 -2 0 0 0 0
0 0 0 0 0 0 0 0 0 -1 0 0 0 0 -1 -1 0 -1 -12 0 0 0 0 0 0 0 0 0 0 0 0 0 0 0 0 0 0 0 0 0 0 0 0 0 0 0 -1 -1 -3
0 0 0 0 0 0 0 0 0 0 0 0 0 0 0 0 0 0 0 0 0 0 0 0 0 0 0 0 0 0 0 0 0 0 0 0 0 0 0 0 0 0 0 0 0 0 -68 -62 -55
0 0 0 0 0 0 0 0 0 0 0 0 0 0 0 0 0 0 0 0 0 0 0 0 0 0 0 0 0 0 0 0 0 0 0 0 0 0 0 0 0 0 0 0 0 0 0 0 0
0 0 0 0 0 0 0 0 0 0 0 0 0 0 0 0 0 0 0 0 0 0 0 0 0 0 0 0 0 0 0 0 0 0 0 0 0 0 0 0 0 0 0 0 0 0 0 0 0
0 0 0 0 0 0 0 0 0 0 0 0 0 0 0 0 0 0 0 0 0 0 0 0 0 0 0 0 0 0 0 0 0 0 0 0 0 0 0 0 0 0 0 0 0 0 0 0 0
Wind_Speed
24 20 17 14 19 16 22 21 21 18 19 16 19 21 24 24 26 20 11 11 8 9 10 11 13 11 5 3 4 10 13 11 5 3 3 3 5 6 6 6 6 9 10 12 13 13 13 14 15
25 17 11 13 14 23 24 19 22 15 21 14 18 20 22 23 16 15 11 11 6 9 10 11 13 10 3 8 7 13 14 11 6 4 4 5 5 6 5 6 7 9 10 11 11 12 13 13 15
9 9 12 9 7 9 17 24 23 21 18 19 20 20 22 18 16 13 12 5 5 8 9 10 12 8 4 10 10 15 14 11 8 7 6 6 5 5 5 5 7 8 9 10 11 12 13 14 15
11 9 12 8 4 7 3 10 22 21 23 16 21 23 16 16 16 15 9 3 2 6 9 10 11 6 5 10 11 14 13 10 8 8 9 9 6 5 5 5 6 8 8 9 10 12 13 14 15
10 12 2 7 8 9 12 30 33 19 22 21 15 22 24 17 13 11 6 2 1 3 5 9 9 4 5 10 11 12 12 10 10 10 10 10 8 6 6 6 6 7 8 9 11 12 13 14 15
13 14 3 7 11 11 10 12 18 18 18 23 20 21 23 12 12 9 6 1 2 1 3 6 8 4 6 9 12 13 12 11 11 11 10 10 8 8 8 7 8 8 9 10 11 13 14 14 15
16 11 7 9 14 33 35 32 26 20 22 24 28 29 20 15 9 6 4 1 2 1 2 3 5 5 6 10 12 14 12 12 11 10 10 9 9 9 9 9 9 9 10 11 12 14 15 15 15
17 16 18 16 15 27 28 31 28 28 21 24 28 27 26 20 12 8 3 2 3 3 3 4 6 7 10 13 14 14 13 12 11 9 9 8 9 10 9 10 11 11 12 13 13 15 16 16 16
16 17 19 20 25 31 33 32 31 31 29 24 27 31 18 18 17 12 9 5 6 8 7 6 7 8 12 14 16 14 12 12 10 9 8 10 11 12 11 13 10 13 14 15 15 16 16 16 15
16 17 18 24 28 32 33 34 36 36 34 32 29 25 20 19 22 22 15 11 11 10 10 9 10 11 12 14 13 14 14 13 13 12 11 11 12 9 10 9 11 14 16 17 16 16 16 16 13
19 18 26 26 30 33 35 36 35 37 37 34 35 30 23 20 23 24 27 16 14 10 13 11 12 13 15 15 14 14 14 14 14 13 11 15 15 10 8 10 13 16 17 17 14 14 14 13 15
21 20 27 27 32 33 35 37 35 33 35 35 37 37 31 30 26 25 27 30 16 13 13 14 12 14 16 15 15 15 13 14 14 13 10 16 15 10 12 14 12 13 14 15 13 15 14 17 16
18 24 27 31 32 31 31 33 35 37 37 35 37 41 39 34 34 27 25 29 24 17 15 19 16 15 15 15 15 17 16 14 14 13 13 14 17 17 15 15 15 13 13 13 16 15 16 15 15
26 28 25 24 24 26 28 31 31 33 37 38 34 37 43 41 37 35 28 26 31 24 16 13 14 17 16 16 16 17 18 16 14 14 14 14 14 15 15 15 15 16 16 15 15 16 16 16 16
23 23 25 15 32 32 28 29 22 34 37 36 29 40 43 41 39 38 37 31 29 29 25 16 14 13 15 18 19 17 18 16 16 16 15 15 17 15 15 16 16 16 16 16 17 17 18 19 19
23 19 29 30 31 28 31 27 29 34 33 31 31 31 30 31 29 32 34 30 27 25 26 22 17 15 14 16 20 19 19 15 16 16 17 16 16 18 17 17 18 18 16 17 18 19 21 20 21
23 27 30 33 31 29 25 24 28 27 30 29 30 34 34 34 33 32 36 30 29 24 22 17 12 13 13 15 19 20 20 20 16 16 18 17 17 18 19 19 19 18 18 18 18 20 20 21 22
27 27 27 32 27 26 23 22 24 25 28 30 31 32 34 33 32 33 31 30 30 24 24 22 16 13 16 16 16 20 24 22 21 19 18 18 18 19 20 21 21 21 20 20 20 20 20 20 19
23 22 26 29 24 23 27 26 26 27 28 28 31 33 31 29 29 29 29 27 32 24 21 20 15 12 15 16 16 18 22 24 23 22 19 21 19 19 20 21 21 21 20 20 20 20 20 21 21
23 22 24 24 26 20 23 28 24 28 26 26 23 31 28 25 24 25 25 24 28 20 16 17 16 13 11 15 15 17 18 21 21 23 21 21 21 20 20 20 20 21 22 21 20 20 23 23 18
23 20 23 25 25 19 22 22 28 26 22 25 28 25 23 22 22 21 20 24 28 12 10 11 13 11 11 12 14 17 18 23 22 23 19 20 19 19 20 20 20 21 21 21 22 22 22 24 21
23 20 24 23 23 23 25 23 28 28 25 26 26 13 19 17 16 19 19 18 12 7 8 8 9 13 13 13 12 18 21 23 21 21 21 17 20 22 23 23 22 22 22 22 24 26 24 23 25
16 20 18 19 19 18 24 22 25 30 27 5 11 4 10 9 9 12 14 13 7 7 6 5 8 12 14 17 15 19 23 24 19 19 18 18 20 19 19 20 20 22 23 23 22 21 23 23 23
14 15 14 16 17 20 23 23 23 35 25 11 6 5 8 6 6 9 13 18 5 9 11 8 9 13 15 17 13 14 17 17 17 16 15 17 18 20 20 21 18 19 19 22 23 24 23 26 23
26 24 23 21 22 23 24 23 22 31 28 23 25 27 20 19 16 13 12 9 11 13 18 13 11 16 19 19 17 17 17 17 14 14 14 14 17 17 17 16 17 19 21 22 24 24 28 25 26
21 21 23 23 23 21 24 23 21 24 26 27 27 24 12 10 7 13 16 16 13 18 16 14 15 16 20 20 18 16 16 15 15 15 17 16 18 21 21 23 24 26 22 23 26 24 24 24 23
20 21 18 18 16 17 19 18 17 23 22 25 26 21 17 18 17 21 15 12 13 15 19 19 19 19 20 20 19 18 17 18 18 19 20 20 17 21 22 23 22 23 25 24 22 22 22 20 21
17 18 18 18 20 20 18 20 17 18 20 21 23 23 21 22 23 21 19 28 19 17 22 22 22 23 23 21 20 19 19 21 21 20 20 21 22 22 23 22 23 25 23 23 21 20 20 18 19
16 16 16 16 17 18 18 17 16 15 16 18 19 20 20 21 23 21 26 26 24 25 24 23 22 21 23 23 22 19 19 19 19 20 20 21 21 20 21 21 21 22 22 22 21 20 19 19 18
14 15 13 15 17 16 16 15 12 13 14 14 16 17 18 20 21 22 23 24 26 26 25 24 25 25 23 22 21 20 20 20 20 20 21 21 21 20 20 21 21 21 22 22 21 19 19 18 18
Wind_Direction
260 248 356 4 328 327 312 315 309 317 321 330 319 304 297 297 295 298 347 355 51 62 97 113 120 122 133 211 217 226 225 228 223 229 268 318 7 350 331 329 359 19 30 33 32 23 19 15 16
276 291 10 358 333 307 308 320 313 320 311 335 323 314 303 297 324 318 326 334 48 73 99 112 121 123 170 236 227 226 227 230 222 234 267 292 345 345 341 354 11 29 29 30 21 15 11 6 8
356 8 352 5 347 316 320 310 319 321 327 322 317 314 305 316 329 328 334 354 69 75 101 112 124 124 215 236 229 228 229 228 229 242 265 285 333 348 357 3 9 16 21 18 10 8 8 11 10
358 2 343 325 261 331 301 328 336 329 317 335 314 307 318 330 323 330 339 355 62 79 103 115 123 130 226 229 229 228 228 227 235 251 260 271 300 329 339 1 8 12 11 2 0 3 3 6 11
357 342 293 310 298 293 306 301 303 319 317 322 329 306 306 324 348 350 3 342 23 76 90 122 125 156 219 228 229 226 228 235 246 256 261 267 280 289 299 321 337 346 344 350 360 6 5 2 2
336 332 299 267 302 302 295 310 314 317 317 308 320 317 308 340 346 354 357 32 282 345 113 130 135 175 221 225 230 229 236 243 251 258 263 267 275 278 287 302 315 329 339 340 340 338 337 343 349
331 330 293 294 311 304 300 307 315 310 308 304 304 303 311 319 337 358 2 309 277 274 160 161 166 202 216 231 234 236 241 247 253 260 262 267 274 279 283 296 307 316 325 331 332 331 335 340 348
338 330 327 320 315 315 315 309 310 312 308 310 306 306 301 320 323 329 347 260 257 252 235 196 210 220 235 239 238 241 245 250 255 262 264 270 276 281 289 292 297 304 313 319 326 328 328 331 343
347 334 331 331 322 312 316 313 311 309 308 312 305 302 310 309 313 307 298 276 267 265 252 227 216 227 237 240 242 243 247 251 256 263 268 273 276 279 287 289 301 301 306 309 316 320 325 333 347
348 336 337 332 321 315 312 311 305 307 304 304 309 302 308 304 296 291 281 270 270 259 248 241 236 237 236 240 240 246 249 252 258 263 266 274 277 294 294 300 303 302 302 305 313 321 327 334 356
345 337 327 326 321 316 312 308 309 304 300 302 299 299 307 306 292 286 278 268 265 246 254 244 247 242 241 243 240 247 249 252 257 263 267 268 278 292 300 302 301 298 303 309 322 331 338 344 339
341 336 329 326 322 318 313 310 310 305 302 302 297 293 300 294 292 281 277 271 255 248 244 252 235 240 244 246 243 244 247 252 255 260 263 269 277 289 295 295 306 310 312 316 325 326 331 326 331
346 340 333 328 324 322 321 316 313 310 308 303 293 284 287 288 285 279 274 265 265 250 242 247 246 240 246 246 247 244 250 253 255 257 263 272 275 282 290 295 299 309 314 317 316 321 323 327 329
344 337 338 340 338 334 327 324 324 320 312 306 301 287 278 279 278 274 268 267 257 253 242 225 238 239 246 248 252 249 251 253 258 262 264 270 277 282 287 292 298 300 305 311 316 317 321 322 324
351 349 349 358 341 338 338 333 339 333 328 322 308 283 275 272 272 267 267 260 259 253 253 232 235 236 241 246 253 253 254 253 259 262 267 269 275 283 287 290 295 299 303 308 311 315 317 318 319
1 2 350 344 346 347 345 338 338 344 343 335 325 295 286 277 279 275 266 257 259 254 246 242 240 248 242 247 248 254 259 258 259 263 268 271 275 280 285 289 292 296 300 304 307 310 312 314 315
5 353 350 347 350 352 356 345 342 351 352 347 335 296 287 278 276 280 264 257 255 253 239 239 240 246 245 249 247 252 256 266 266 267 269 272 276 280 284 287 290 294 297 299 303 306 309 310 311
357 358 357 351 354 358 359 353 359 1 360 352 337 310 290 279 276 274 268 258 256 253 243 240 245 249 251 252 254 254 256 265 269 272 271 274 276 279 282 286 288 291 294 297 301 305 308 310 311
3 1 358 358 4 6 4 1 4 5 2 357 341 309 297 284 278 272 270 266 260 250 244 238 239 237 254 253 254 257 259 262 268 273 274 278 278 280 282 285 287 290 292 296 300 304 305 307 310
6 3 4 4 6 12 9 360 3 5 4 5 4 319 302 293 279 276 269 261 257 248 235 239 241 243 242 256 259 266 263 266 269 271 276 278 281 283 283 284 287 289 292 296 299 302 305 306 306
6 8 6 2 7 19 15 12 13 14 21 21 6 7 314 301 283 274 266 251 259 263 244 262 264 251 251 260 265 271 272 269 267 272 278 280 283 285 284 286 288 291 295 297 299 302 302 302 302
8 17 4 5 12 13 23 15 17 21 27 25 35 310 316 297 283 263 247 251 269 259 264 257 287 296 290 282 273 270 271 270 271 273 277 281 288 290 288 288 291 294 298 299 301 304 303 300 294
12 9 9 16 19 24 23 22 15 19 30 337 293 279 325 299 254 251 257 268 290 337 303 314 313 316 317 303 295 279 274 274 279 279 280 287 294 304 297 298 297 297 300 303 306 313 330 338 315
15 12 17 23 23 22 22 28 25 3 25 284 279 273 279 285 289 312 317 245 301 329 332 3 348 349 341 331 324 312 296 293 280 281 284 292 302 307 310 309 311 303 315 311 309 312 315 316 311
14 17 15 14 17 15 22 32 37 7 26 340 339 360 323 341 325 299 276 330 334 327 329 325 343 348 333 325 323 321 302 312 318 301 302 310 313 316 321 321 333 333 323 324 305 314 314 309 310
23 25 19 12 15 17 20 31 42 41 37 29 28 7 331 325 314 349 353 353 337 346 319 339 347 350 341 337 324 319 320 311 311 325 326 322 317 312 313 319 323 313 319 312 310 323 316 323 321
25 25 28 24 28 26 24 34 50 22 2 14 25 360 347 343 338 349 342 334 341 350 354 6 358 357 352 318 331 316 331 319 313 315 318 323 321 326 322 322 319 316 319 323 326 323 320 325 324
31 27 24 25 16 13 21 20 31 40 14 10 16 15 6 8 9 5 360 35 1 346 358 7 9 13 10 354 343 316 321 321 324 322 330 324 329 324 315 330 324 317 322 325 330 329 329 334 332
27 30 28 24 19 13 10 13 30 43 25 25 22 14 13 11 22 8 34 34 19 19 14 10 5 359 6 1 357 344 334 333 333 332 331 329 337 333 331 335 331 328 330 329 335 333 333 337 337
33 28 28 20 14 14 7 8 34 45 51 34 30 15 16 21 19 17 15 17 21 17 9 8 9 10 1 352 351 349 342 346 345 343 342 337 340 338 335 336 337 339 337 339 341 343 345 347 345